Regional Weather Roundup
Issued by NWS

Home | Current Version | Previous Version | Text Only | Print | Product List | Glossary On
Versions: 1 2 3 4 5 6 7 8 9 10 11 12 13 14 15 16 17 18 19 20 21 22 23 24 25 26 27 28 29 30 31 32 33 34 35 36 37 38 39 40 41 42 43 44 45 46 47 48 49 50
430
ASUS43 KDMX 032108
RWRIA

WEATHER ROUNDUP FOR IOWA
NATIONAL WEATHER SERVICE DES MOINES IA
400 PM CDT TUE MAY 03 2016

NOTE: "FAIR" INDICATES FEW OR NO CLOUDS BELOW 12,000 FEET WITH NO
SIGNIFICANT WEATHER AND/OR OBSTRUCTIONS TO VISIBILITY.

* - THESE STATIONS ARE NOT NWS STATIONS...THUS NOT UNDER NWS
QUALITY CONTROL.  THEY ALSO DO NOT REPORT WEATHER SUCH
AS PRECIPITATION OR FOG.

IAZ001>003-012>014-020>022-031>034-043>046-032200-
   NORTHWEST IOWA

CITY           SKY/WX    TMP DP  RH WIND       PRES   REMARKS
CARROLL *      PTSUNNY   68  46  45 W23G29    29.91F
CHEROKEE *     CLOUDY    66  45  45 W16G24    29.90F
DENISON *      MOSUNNY   68  43  40 W16G23    29.90F
LE MARS *      MOSUNNY   68  45  42 W18G26    29.92F
ORANGE CITY *  MOSUNNY   66  48  52 NW24G32   29.90F
SHELDON *      MOSUNNY   68  45  42 W20G28    29.87F
SIOUX CITY     MOSUNNY   69  47  45 NW20G25   29.92F
SPENCER        CLOUDY    68  44  42 W24G32    29.87F
STORM LAKE *   MOSUNNY   66  43  42 W21G29    29.90F
$$

IAZ055>058-069>071-079>083-090>094-032200-
   SOUTHWEST IOWA

CITY           SKY/WX    TMP DP  RH WIND       PRES   REMARKS
ATLANTIC *     PTSUNNY   68  43  40 W16G23    29.94F
AUDUBON *      MOSUNNY   70  43  37 W9G16     29.94F
CLARINDA *       N/A    N/A N/A N/A MISG        N/A
COUNCIL BLFS * PTSUNNY   66  41  39 W12G21    29.95F
CRESTON *      MOSUNNY   64  43  45 W12G18    29.96F
HARLAN  *      PTSUNNY   68  41  37 W21G29    29.97F
LAMONI         MOSUNNY   66  44  45 W14       29.96F
RED OAK *      MOSUNNY   70  43  37 W15       29.96F
SHENANDOAH *   MOSUNNY   70  45  40 W9        29.98F
$$

IAZ047>049-059>061-072>074-084-032200-
   CENTRAL IOWA

CITY           SKY/WX    TMP DP  RH WIND       PRES   REMARKS
AMES           MOSUNNY   68  43  40 W21G28    29.88F
ANKENY *       MOSUNNY   68  43  40 W18G28    29.89F
BOONE *        MOSUNNY   66  43  42 W16G25    29.88F
CHARITON *     MOSUNNY   68  45  42 W12G20    29.93F
DES MOINES     CLOUDY    69  39  33 W18G26    29.91F
GRINNELL*      PTSUNNY   66  39  37 W15       29.89F
KNOXVILLE *    MOSUNNY   68  39  34 W17G24    29.90F
MARSHALLTOWN   CLOUDY    65  42  43 W17G24    29.87F
NEWTON *       PTSUNNY   68  39  34 W16G26    29.89F
PERRY *        PTSUNNY   66  46  48 W20G28    29.91F
$$

IAZ004>006-015-016-023>025-035-036-032200-
   NORTH CENTRAL IOWA

CITY           SKY/WX    TMP DP  RH WIND       PRES   REMARKS
ALGONA *       PTSUNNY   68  45  42 W26       29.86F
CLARION *      MOSUNNY   66  43  42 NW17G30   29.86F
ESTHERVILLE    MOSUNNY   65  46  50 W26G32    29.85F
FORT DODGE *   MOSUNNY   66  45  45 W13G18    29.88F
MASON CITY     CLOUDY    66  42  41 W22G29    29.84F
FOREST CITY *  MOSUNNY   64  41  42 W21G26    29.83F
WEBSTER CITY * MOSUNNY   68  43  40 W18G31    29.86F
IOWA FALLS *   PTSUNNY   68  41  37 W22G29    29.87F
$$

IAZ007>011-017>019-026>030-037>042-050>054-066-032200-
   NORTHEAST IOWA

CITY           SKY/WX    TMP DP  RH WIND       PRES   REMARKS
CEDAR RAPIDS   CLOUDY    65  42  43 W17G28    29.86F
CHARLES CITY * MOSUNNY   68  37  32 W21       29.82F
CLINTON *      MOSUNNY   69  42  37 W21G30    29.85F
DECORAH *      PTSUNNY   68  36  30 W12G21    29.79F
DUBUQUE        MOSUNNY   66  40  38 W18G26    29.83F
MONTICELLO *   PTSUNNY   66  41  39 W14       29.84F
OELWEIN *      MOSUNNY   66  39  37 W20G26    29.84F
WATERLOO       PTSUNNY   68  38  33 W17G26    29.84F
$$

IAZ064-065-067-068-078-032200-
   EAST CENTRAL IOWA

CITY           SKY/WX    TMP DP  RH WIND       PRES   REMARKS
DAVENPORT      MOSUNNY   68  40  35 W18G28    29.87F
IOWA CITY      PTSUNNY   66  41  40 W18G24    29.89F
MT. PLEASANT * MOSUNNY   70  41  35 SW16G22   29.91F
MUSCATINE *    CLOUDY    68  41  37 W18       29.89F
QUAD CITIES    PTSUNNY   69  39  33 W18       29.87F
$$

IAZ062-063-075>077-085>089-095>099-032200-
   SOUTHEAST IOWA

CITY           SKY/WX    TMP DP  RH WIND       PRES   REMARKS
BURLINGTON     PTSUNNY   65  39  38 W8G17     29.91F
FAIRFIELD *    PTSUNNY   66  41  39 W10G18    29.91F
FORT MADISON * PTSUNNY   66  39  37 W9G16     29.93F
KEOKUK *       MOSUNNY   68  37  32 SW17      29.92F
OSKALOOSA *      N/A     68  39  34 W16G22    29.91F
OTTUMWA        PTSUNNY   68  42  38 W14       29.91F
WASHINGTON *   PTSUNNY   68  43  40 W17       29.91F
$$

ABBREVIATIONS USED IN REMARKS
   TC - TEMPERATURES IN CELSIUS
  WCI - WIND CHILL INDEX
   HX - HEAT INDEX
  VSB - VISIBILITY
$$





USA.gov is the U.S. government's official web portal to all federal, state and local government web resources and services.